Regional Weather Roundup
Issued by NWS

Home | Current Version | Previous Version | Graphics & Text | Print | Product List | Glossary On
Versions: 1 2 3 4 5 6 7 8 9 10 11 12 13 14 15 16 17 18 19 20 21 22 23 24 25 26 27 28 29 30 31 32 33 34 35 36 37 38 39 40 41 42 43 44 45 46 47 48 49 50
328
ASUS44 KLIX 190510
RWRLA
LOUISIANA WEATHER ROUNDUP
NATIONAL WEATHER SERVICE NEW ORLEANS LA
1200 AM CDT SAT APR 19 2014

NOTE: "FAIR" INDICATES FEW OR NO CLOUDS BELOW 12,000 FEET WITH NO
      SIGNIFICANT WEATHER AND/OR OBSTRUCTIONS TO VISIBILITY.
      SKY/WX - SKY CONDITION AND SIGNIFICANT WEATHER.
      TMP - AIR TEMPERATURE.    DP   - DEWPOINT TEMPERATURE.
      RH  - RELATIVE HUMIDITY.  PRES - PRESSURE.
      HX  - HEAT INDEX.         WCI  - WIND CHILL INDEX.

*  THESE STATIONS ARE NOT NWS OR FAA STATIONS AND ARE NOT UNDER
   NWS QUALITY CONTROL.

LAZ040-048-061>063-065-066-069-190600-
SOUTHEAST LOUISIANA

CITY           SKY/WX    TMP DP  RH WIND       PRES   REMARKS
N.O. AUDUBON     N/A     62  56  82 MISG        N/A
N.O. INTL ARPT PTCLDY    61  55  81 N9        30.15R
N.O. LAKEFRONT CLEAR     62  56  80 NE17      30.16R
N.O. DOWNTOWN* FAIR      63  52  67 N6        30.15S
SLIDELL        CLEAR     57  53  86 CALM      30.15R
BATON ROUGE    CLEAR     59  55  87 NE7       30.15F
BOOTHVILLE     PTCLDY    61  55  81 NE13G18   30.12R
BELLE CHASSE   CLEAR     60  54  80 NE6       30.14R
BOGALUSA*        N/A     57  53  86 N3        30.18R
GALLIANO*      CLEAR     62  56  82 N6        30.13F
NEW ROADS*     FAIR      60  60  97 NE7       30.15F
GONZALES*      FAIR      61  57  88 CALM      30.15S
HAMMOND*       CLEAR     59  54  82 CALM      30.18R
HOUMA*           N/A     59  54  83 N3        30.14S
PORT FOURCHON* CLEAR     63  57  82 N12       30.15R

$$

LAZ041-044-053-054-190600-
SOUTHWEST LOUISIANA

CITY           SKY/WX    TMP DP  RH WIND       PRES   REMARKS
LAKE CHARLES   CLEAR     63  57  81 N5        30.13S
LAFAYETTE      CLEAR     62  58  86 NE5       30.13F
PATTERSON      CLEAR     63  55  77 E8        30.17S
SALT POINT       N/A     65  59  81 CALM      30.13R
NEW IBERIA     CLEAR     63  58  83 NE5       30.14S
CHENAULT AIRPK CLEAR     61  56  84 N3        30.14F

$$

LAZ027-028-190600-
CENTRAL LOUISIANA

CITY           SKY/WX    TMP DP  RH WIND       PRES   REMARKS
FORT POLK      CLEAR     57  55  93 NE3       30.14F FOG
ALEXANDRIA INT CLEAR     61  56  83 N5        30.14S
ALEXANDRIA     CLEAR     58  56  93 CALM      30.15F

$$

LAZ001-002-190600-
NORTHWEST LOUISIANA

CITY           SKY/WX    TMP DP  RH WIND       PRES   REMARKS
SHREVEPORT     PTCLDY    58  52  80 CALM      30.16F
BARKSDALE AFB  CLEAR     60  54  79 CALM      30.16F
DTN SHREVEPORT CLEAR     58  54  86 CALM      30.16F

$$

LAZ014-016-190600-
NORTHEAST LOUISIANA

CITY           SKY/WX    TMP DP  RH WIND       PRES   REMARKS
MONROE         CLEAR     55  52  89 E3        30.18F
TALLULAH       CLEAR     61  54  77 E3        30.19R

$$




USA.gov is the U.S. government's official web portal to all federal, state and local government web resources and services.